PBO Station Position Time Series. Reference Frame : NAM14
Format Version,1.1.0
4-character ID,JPLM
Station name,JPL_Mesa___SCIGN
Begin Date, 1996-01-01
End Date, 2019-10-07
Release Date, 2019-10-08
Reference position, 34.2048200321 North Latitude, -118.1732273702 East Longitude, 423.97762 meters elevation,
Date, North (mm), East (mm), Vertical (mm), North Std. Deviation (mm), East Std. Deviation (mm),              Vertical Std. Deviation (mm), Quality,
1996-01-01,0.00, 0.00, 0.00, 3.66, 3.50, 13.54, repro,
1996-01-02,7.12, -0.15, 0.00, 3.60, 3.35, 12.90, repro,
1996-01-03,0.24, -2.62, 18.02, 3.58, 3.34, 12.90, repro,
1996-01-04,-0.85, -1.41, 4.91, 3.56, 3.35, 12.96, repro,
1996-01-05,-0.93, -2.13, 2.86, 3.44, 3.18, 12.45, repro,
1996-01-06,-0.95, -2.62, -0.02, 3.39, 3.10, 12.31, repro,
1996-01-07,0.30, -2.55, -0.26, 4.24, 3.77, 15.82, repro,
1996-01-08,3.48, -2.80, 4.25, 3.50, 3.31, 12.93, repro,
1996-01-09,-0.95, -2.67, 2.34, 3.40, 3.17, 12.54, repro,
1996-01-10,3.13, -2.09, 9.73, 3.46, 3.16, 12.58, repro,
1996-01-11,0.34, -2.14, 4.76, 3.56, 3.31, 13.25, repro,
1996-01-12,-0.12, -2.08, 11.00, 3.58, 3.25, 12.84, repro,
1996-01-13,0.14, -2.26, 1.37, 3.57, 3.27, 12.87, repro,
1996-01-14,-0.33, -2.18, 2.00, 3.54, 3.28, 12.85, repro,
1996-01-15,0.70, 0.10, 6.14, 3.47, 3.22, 12.70, repro,
1996-01-16,-0.61, -4.07, 5.55, 3.62, 3.19, 13.08, repro,
1996-01-17,-2.71, -5.05, 29.11, 3.52, 3.36, 12.92, repro,
1996-01-18,-0.67, -1.55, 5.65, 3.26, 3.05, 12.28, repro,
1996-01-19,-0.72, -1.89, 14.62, 3.51, 3.24, 12.95, repro,
1996-01-20,-1.40, -2.63, 4.85, 3.49, 3.32, 12.77, repro,
1996-01-21,0.94, 0.34, 26.21, 3.34, 3.13, 12.56, repro,
1996-01-22,-2.59, -0.74, 10.25, 3.48, 3.28, 12.83, repro,
1996-01-23,-1.16, -0.11, 0.65, 3.64, 3.34, 13.15, repro,
1996-01-24,-2.73, -1.02, 0.40, 3.52, 3.20, 12.40, repro,
1996-01-25,-1.21, -0.80, 6.59, 3.39, 3.21, 13.18, repro,
1996-01-26,0.68, -0.94, 6.09, 3.66, 3.47, 14.14, repro,
1996-01-27,-0.66, 0.33, -4.85, 3.35, 3.06, 12.47, repro,
1996-01-28,-2.65, -1.37, 1.69, 3.96, 3.61, 14.76, repro,
1996-01-29,-2.35, 1.95, 8.03, 2.79, 2.64, 10.39, repro,
1996-01-30,-1.35, -1.06, -7.58, 3.90, 3.69, 14.53, repro,
1996-01-31,2.67, 0.53, -1.34, 2.76, 2.62, 10.34, repro,
1996-02-01,-1.29, 0.49, 0.38, 2.77, 2.61, 10.26, repro,
1996-02-02,-0.15, 1.42, 3.91, 2.91, 2.64, 11.01, repro,
1996-02-03,0.64, 1.14, 1.64, 2.80, 2.63, 10.53, repro,
1996-02-04,-1.17, -0.79, -3.37, 2.82, 2.60, 10.20, repro,
1996-02-05,2.04, 0.69, 6.59, 2.65, 2.41, 9.28, repro,
1996-02-06,-1.72, -0.88, -1.47, 2.75, 2.60, 10.04, repro,
1996-02-07,3.22, -0.00, -10.03, 2.77, 2.53, 9.98, repro,
1996-02-08,0.98, -0.64, 8.84, 2.60, 2.34, 9.32, repro,
1996-02-09,1.35, -0.49, 3.31, 3.59, 3.31, 13.56, repro,
1996-02-10,-0.24, 0.20, 4.98, 2.73, 2.42, 9.71, repro,
1996-02-11,3.79, 0.81, 9.25, 3.33, 3.33, 12.16, repro,
1996-02-12,5.01, 2.46, -9.94, 5.02, 4.85, 19.82, repro,
1996-02-13,3.37, -0.56, -7.12, 4.68, 4.53, 18.52, repro,
1996-02-14,1.30, -0.72, 12.92, 5.09, 4.91, 20.10, repro,
1996-02-15,0.83, 1.68, 18.41, 5.25, 5.51, 21.45, repro,
1996-02-16,-1.69, -3.29, -8.29, 4.85, 4.73, 18.02, repro,
1996-02-17,-0.56, -4.16, 9.58, 5.26, 5.55, 21.89, repro,
1996-02-18,3.25, 0.14, 22.68, 5.35, 5.63, 21.73, repro,
1996-02-19,1.10, -3.83, 12.83, 5.35, 5.55, 21.76, repro,
1996-02-20,2.03, -2.50, 21.66, 3.51, 3.36, 13.68, repro,
1996-02-21,3.21, -2.23, 4.49, 4.78, 4.87, 17.98, repro,
1996-02-22,1.02, -4.00, 0.89, 4.50, 4.85, 18.09, repro,
1996-02-23,-1.80, 0.66, 10.38, 3.37, 3.29, 12.44, repro,
1996-02-24,-0.51, -0.14, 9.77, 3.30, 3.13, 12.74, repro,
1996-02-25,0.90, -3.24, 12.23, 3.47, 3.27, 13.20, repro,
1996-02-26,2.06, 0.81, 13.42, 3.28, 3.17, 12.66, repro,
1996-02-27,0.34, -0.93, 0.79, 3.31, 3.17, 12.69, repro,
1996-02-28,1.84, -1.12, 6.67, 3.32, 3.18, 12.58, repro,
1996-02-29,2.97, -1.00, 14.87, 3.14, 2.95, 12.25, repro,
1996-03-01,1.08, -0.53, 11.90, 3.17, 2.97, 12.38, repro,
1996-03-02,9.34, 7.23, 27.82, 11.59, 11.95, 30.67, repro,
1996-03-07,1.90, -3.36, 15.48, 5.89, 5.24, 23.32, repro,
1996-03-08,-2.33, -2.22, 3.42, 3.26, 2.91, 12.47, repro,
1996-03-09,1.82, -1.91, 7.75, 3.55, 3.15, 13.49, repro,
1996-03-10,1.51, -1.60, 0.80, 3.50, 3.18, 13.25, repro,
1996-03-11,-0.12, -3.30, -5.54, 3.01, 2.77, 11.58, repro,
1996-03-12,-2.60, -2.42, 2.73, 2.71, 2.40, 10.00, repro,
1996-03-13,-2.49, -5.07, 12.53, 2.88, 2.49, 10.76, repro,
1996-03-14,-1.68, -8.76, -8.25, 2.81, 2.70, 10.71, repro,
1996-03-15,1.67, -0.72, 11.46, 3.18, 2.94, 12.29, repro,
1996-03-16,-3.17, -5.02, 5.72, 3.12, 2.85, 11.99, repro,
1996-03-17,1.37, -2.00, 5.67, 3.17, 2.92, 11.81, repro,
1996-03-18,2.51, -2.05, 5.58, 3.53, 3.31, 13.66, repro,
1996-03-19,1.53, -2.19, 1.82, 3.43, 3.21, 13.57, repro,
1996-03-20,-0.00, -4.91, 4.81, 3.45, 3.07, 13.21, repro,
1996-03-21,3.12, -0.68, 7.21, 3.22, 2.94, 12.09, repro,
1996-03-22,-1.62, -4.22, 2.36, 3.27, 3.08, 12.98, repro,
1996-03-23,0.84, -4.62, 5.06, 3.27, 3.06, 12.77, repro,
1996-03-24,5.57, -6.36, -0.59, 3.77, 3.41, 14.09, repro,
1996-03-25,0.81, -2.78, 9.15, 3.41, 3.19, 13.35, repro,
1996-03-26,3.64, -3.95, -1.75, 3.31, 3.04, 12.68, repro,
1996-03-27,0.78, -3.68, 4.35, 2.67, 2.41, 9.72, repro,
1996-03-28,0.66, -4.14, 5.80, 2.57, 2.27, 9.01, repro,
1996-03-29,-0.08, -4.64, -3.92, 2.57, 2.29, 9.31, repro,
1996-03-30,3.10, -2.37, 4.57, 2.65, 2.35, 9.39, repro,
1996-03-31,1.73, -1.79, 4.66, 2.70, 2.41, 9.71, repro,
1996-04-01,2.13, -2.28, 16.20, 2.69, 2.41, 9.77, repro,
1996-04-02,0.68, -2.24, 9.63, 2.94, 2.60, 9.73, repro,
1996-04-03,-0.37, -2.03, 9.33, 2.53, 2.25, 9.03, repro,
1996-04-04,1.95, -0.92, 10.57, 2.57, 2.28, 9.06, repro,
1996-04-05,0.25, -4.05, -6.71, 2.72, 2.45, 9.95, repro,
1996-04-06,1.77, -1.07, -8.91, 2.74, 2.54, 10.21, repro,
1996-04-07,1.42, -2.35, 3.57, 2.68, 2.38, 9.42, repro,
1996-04-08,1.50, -2.70, 4.15, 2.62, 2.34, 9.27, repro,
1996-04-09,1.38, -0.92, 4.78, 2.61, 2.32, 9.31, repro,
1996-04-10,3.30, -2.37, 10.69, 2.64, 2.36, 9.35, repro,
1996-04-11,0.79, -4.19, 9.74, 2.59, 2.33, 9.33, repro,
1996-04-12,1.64, -2.93, 3.33, 2.75, 2.42, 9.90, repro,
1996-04-13,1.63, -0.32, -1.57, 2.62, 2.34, 9.22, repro,
1996-04-14,1.72, -3.41, 3.02, 2.65, 2.39, 9.53, repro,
1996-04-15,1.28, -1.64, 2.98, 2.77, 2.45, 10.11, repro,
1996-04-16,-0.91, -2.00, 4.43, 2.73, 2.42, 9.77, repro,
1996-04-17,0.52, 0.33, 6.95, 2.79, 2.52, 9.81, repro,
1996-04-18,1.81, -3.80, 5.76, 2.86, 2.55, 10.12, repro,
1996-04-19,1.15, -0.90, 5.15, 2.71, 2.40, 9.55, repro,
1996-04-20,2.49, -2.46, 10.49, 2.67, 2.35, 9.33, repro,
1996-04-21,0.73, -0.97, 4.26, 2.77, 2.40, 9.74, repro,
1996-04-22,2.11, -1.17, 0.58, 2.70, 2.39, 9.44, repro,
1996-04-23,-0.81, -1.19, 7.47, 2.73, 2.39, 10.11, repro,
1996-04-24,1.15, -1.58, 6.49, 2.69, 2.44, 10.06, repro,
1996-04-25,0.42, -0.61, 11.64, 2.60, 2.33, 9.39, repro,
1996-04-26,0.85, -3.83, -0.39, 3.23, 3.03, 12.91, repro,
1996-04-27,1.26, -2.23, 10.15, 2.66, 2.42, 10.00, repro,
1996-04-28,1.63, -1.21, 8.50, 2.63, 2.30, 9.46, repro,
1996-04-29,2.61, -2.58, 3.13, 2.88, 2.58, 10.98, repro,
1996-04-30,0.15, -2.15, 9.46, 2.86, 2.63, 10.90, repro,
1996-05-01,-2.02, -0.40, 3.19, 2.85, 2.58, 10.51, repro,
1996-05-02,1.38, -1.33, 4.15, 2.68, 2.32, 9.73, repro,
1996-05-03,0.19, -1.66, 3.33, 2.69, 2.35, 9.81, repro,
1996-05-04,2.09, -3.61, -0.62, 2.69, 2.40, 9.80, repro,
1996-05-05,1.77, -1.87, -0.05, 2.61, 2.31, 9.46, repro,
1996-05-06,-0.32, -1.51, 6.21, 2.59, 2.37, 9.61, repro,
1996-05-07,1.99, -0.25, 2.85, 2.72, 2.32, 9.88, repro,
1996-05-08,0.39, -1.24, 1.07, 2.69, 2.36, 9.68, repro,
1996-05-09,0.17, -2.03, 3.49, 2.70, 2.41, 9.65, repro,
1996-05-10,1.78, -0.12, -1.04, 2.80, 2.49, 10.09, repro,
1996-05-11,2.19, -2.04, -8.88, 3.06, 2.73, 11.08, repro,
1996-05-12,-0.27, -0.76, -2.28, 2.82, 2.51, 10.25, repro,
1996-05-13,2.23, -1.69, 6.97, 2.71, 2.46, 9.74, repro,
1996-05-14,-0.17, -0.74, 11.02, 2.80, 2.47, 9.98, repro,
1996-05-15,0.77, -0.95, 6.83, 2.66, 2.35, 9.52, repro,
1996-05-16,-0.31, -0.94, 10.26, 2.64, 2.41, 9.46, repro,
1996-05-17,2.36, -2.85, 5.42, 2.75, 2.51, 9.84, repro,
1996-05-18,2.12, -0.73, 9.41, 2.71, 2.53, 9.92, repro,
1996-05-19,0.86, -2.19, -0.28, 2.62, 2.35, 9.61, repro,
1996-05-20,0.58, -2.16, 3.26, 2.69, 2.47, 9.88, repro,
1996-05-21,0.24, -2.97, 6.14, 2.73, 2.52, 9.94, repro,
1996-05-22,-1.14, -3.46, 10.80, 2.75, 2.49, 9.88, repro,
1996-05-23,-0.50, -5.12, 1.22, 2.78, 2.43, 10.29, repro,
1996-05-24,-0.46, -3.05, -2.99, 2.81, 2.53, 10.30, repro,
1996-05-25,-1.97, -1.93, 2.69, 2.78, 2.47, 10.06, repro,
1996-05-26,-0.20, -1.84, 3.97, 2.72, 2.49, 10.18, repro,
1996-05-27,0.84, -3.01, 7.29, 2.83, 2.54, 10.38, repro,
1996-05-28,-1.14, -4.18, 7.32, 2.75, 2.54, 10.17, repro,
1996-05-29,-0.22, -3.59, 0.72, 2.85, 2.64, 10.55, repro,
1996-05-30,-1.25, -2.51, 1.40, 2.75, 2.43, 10.10, repro,
1996-05-31,-1.15, -2.31, 3.38, 2.70, 2.47, 10.07, repro,
1996-06-01,-2.10, -2.10, -1.41, 2.71, 2.45, 9.96, repro,
1996-06-02,-0.50, -2.27, -9.35, 2.88, 2.62, 10.81, repro,
1996-06-03,-0.20, -4.40, -5.17, 2.92, 2.60, 10.81, repro,
1996-06-04,0.28, -3.64, -4.29, 3.00, 2.70, 11.35, repro,
1996-06-05,0.72, -6.57, 2.44, 4.09, 3.92, 17.94, repro,
1996-06-07,0.90, -4.01, 1.96, 3.34, 2.87, 12.67, repro,
1996-06-08,1.62, -2.19, 0.79, 2.78, 2.54, 10.48, repro,
1996-06-09,-0.09, -4.42, 9.43, 2.82, 2.56, 10.53, repro,
1996-06-10,-0.97, -2.65, 9.97, 2.79, 2.62, 10.72, repro,
1996-06-11,-1.45, -3.06, 9.54, 2.94, 2.77, 11.63, repro,
1996-06-12,1.06, -2.31, -4.93, 2.80, 2.53, 10.66, repro,
1996-06-13,-0.20, -3.26, 0.70, 2.99, 2.76, 11.68, repro,
1996-06-14,-1.59, -3.00, -5.52, 2.96, 2.66, 11.25, repro,
1996-06-15,-1.65, -3.24, -4.21, 2.75, 2.55, 10.41, repro,
1996-06-16,-1.49, -1.83, -4.13, 2.77, 2.57, 10.19, repro,
1996-06-17,-0.82, -2.62, -10.52, 2.85, 2.65, 10.45, repro,
1996-06-18,-1.36, -2.88, 3.85, 3.02, 2.76, 11.42, repro,
1996-06-19,-1.30, -3.48, 5.19, 2.92, 2.70, 11.39, repro,
1996-06-20,-3.13, -2.35, -1.00, 3.31, 3.31, 13.20, repro,
1996-06-21,-2.51, -2.51, 1.18, 2.92, 2.54, 11.03, repro,
1996-06-22,-4.04, -4.55, -5.41, 2.81, 2.58, 11.05, repro,
1996-06-23,-2.17, -5.85, -2.19, 2.84, 2.55, 10.57, repro,
1996-06-24,-1.01, -3.68, -1.45, 3.19, 2.87, 11.87, repro,
1996-06-25,-0.65, -2.49, 5.53, 3.15, 2.81, 11.78, repro,
1996-06-26,-1.08, -2.36, -0.03, 2.87, 2.56, 10.66, repro,
1996-06-27,-0.51, -3.55, -4.13, 3.15, 2.79, 11.71, repro,
1996-06-28,-1.81, -1.80, -13.79, 3.03, 2.63, 11.20, repro,
1996-06-29,-1.52, -3.42, -5.46, 3.12, 2.80, 11.88, repro,
1996-06-30,-1.82, -1.57, -2.85, 3.00, 2.68, 11.21, repro,
1996-07-01,-1.77, -2.83, -10.08, 3.17, 2.71, 11.96, repro,
1996-07-02,-2.30, -2.35, -2.32, 3.22, 2.81, 12.19, repro,
1996-07-03,-3.64, -2.89, -1.59, 3.09, 2.80, 11.38, repro,
1996-07-04,-0.55, -2.98, 3.63, 3.17, 2.80, 11.57, repro,
1996-07-05,-2.84, -1.40, 0.24, 2.90, 2.59, 10.43, repro,
1996-07-06,-1.78, -2.01, -0.44, 2.73, 2.47, 9.98, repro,
1996-07-07,-1.68, -2.60, 3.74, 2.91, 2.64, 10.50, repro,
1996-07-08,-1.50, -1.84, 13.08, 2.71, 2.50, 10.09, repro,
1996-07-09,-1.71, -1.42, 0.22, 2.67, 2.45, 9.97, repro,
1996-07-10,-0.83, -1.96, -3.73, 2.69, 2.46, 9.89, repro,
1996-07-11,-4.26, -1.87, -1.51, 2.73, 2.49, 9.92, repro,
1996-07-12,-2.29, -2.16, -4.76, 2.71, 2.44, 9.88, repro,
1996-07-13,-2.24, -4.11, 7.26, 2.68, 2.41, 9.84, repro,
1996-07-14,-3.40, -3.34, -1.04, 2.69, 2.46, 9.95, repro,
1996-07-15,-2.14, -2.93, -1.03, 2.77, 2.44, 10.26, repro,
1996-07-16,-2.86, -2.82, 3.47, 2.72, 2.40, 10.05, repro,
1996-07-17,-2.69, -2.14, 7.69, 3.07, 2.84, 11.50, repro,
1996-07-18,-2.98, -4.14, -4.17, 2.61, 2.37, 9.83, repro,
1996-07-19,-2.73, -3.62, -3.88, 2.61, 2.42, 9.98, repro,
1996-07-20,-3.68, -3.68, 8.36, 3.27, 3.20, 13.65, repro,
1996-07-21,-3.79, -3.05, -0.17, 2.61, 2.35, 9.66, repro,
1996-07-22,-3.86, -3.26, -8.09, 2.64, 2.40, 9.91, repro,
1996-07-23,-7.30, -5.17, -11.91, 2.32, 2.11, 9.07, repro,
1996-07-24,-6.85, -5.62, -5.59, 2.48, 2.16, 9.52, repro,
1996-07-25,-7.32, -4.69, -2.02, 2.35, 2.11, 9.12, repro,
1996-07-26,-7.08, -5.44, -10.28, 2.42, 2.23, 9.37, repro,
1996-07-27,-5.51, -4.52, -14.23, 2.46, 2.25, 9.47, repro,
1996-07-28,-6.68, -6.32, -2.78, 2.36, 2.15, 9.14, repro,
1996-07-29,-6.65, -5.09, -6.62, 2.37, 2.19, 9.24, repro,
1996-07-30,-5.27, -6.44, 3.48, 2.51, 2.29, 10.01, repro,
1996-07-31,-7.05, -4.90, -3.90, 2.39, 2.17, 9.50, repro,
1996-08-01,-7.53, -4.87, -6.96, 2.40, 2.20, 9.39, repro,
1996-08-02,-8.63, -3.29, -5.33, 2.40, 2.12, 9.37, repro,
1996-08-03,-6.88, -4.79, -5.80, 2.28, 2.07, 8.84, repro,
1996-08-04,-6.75, -4.66, 0.37, 2.37, 2.18, 9.30, repro,
1996-08-05,-7.78, -4.34, -0.18, 2.41, 2.15, 9.65, repro,
1996-08-06,-9.02, -3.90, -1.47, 2.49, 2.25, 9.89, repro,
1996-08-07,-6.34, -4.14, 2.17, 2.40, 2.21, 9.48, repro,
1996-08-08,-6.88, -4.15, -15.10, 2.50, 2.28, 10.01, repro,
1996-08-09,-4.68, -4.44, 0.36, 2.63, 2.36, 9.93, repro,
1996-08-10,-6.03, -3.85, -3.42, 2.55, 2.23, 9.58, repro,
1996-08-11,-5.49, -3.27, -2.30, 2.55, 2.28, 9.57, repro,
1996-08-12,-4.04, -2.45, -3.27, 2.73, 2.43, 10.87, repro,
1996-08-13,-3.32, -2.78, -3.43, 2.77, 2.40, 10.53, repro,
1996-08-14,-7.01, -3.41, -2.73, 2.72, 2.29, 10.58, repro,
1996-08-15,-4.97, -3.97, 8.52, 2.70, 2.44, 10.19, repro,
1996-08-16,-4.49, -3.52, 1.09, 2.73, 2.45, 10.58, repro,
1996-08-17,-2.93, -3.85, 3.66, 2.80, 2.46, 10.67, repro,
1996-08-18,-3.56, -1.89, -7.37, 2.83, 2.40, 10.56, repro,
1996-08-19,-6.58, -3.56, 5.78, 2.97, 2.51, 11.81, repro,
1996-08-20,-7.33, -5.97, -0.85, 2.94, 2.61, 11.94, repro,
1996-08-21,-5.55, -1.76, 0.95, 2.73, 2.31, 10.58, repro,
1996-08-22,-5.71, -3.09, 3.91, 2.57, 2.32, 9.76, repro,
1996-08-23,-5.00, -2.43, 5.51, 2.87, 2.54, 11.49, repro,
1996-08-24,-4.43, -1.94, -4.05, 2.84, 2.51, 11.34, repro,
1996-08-25,-6.32, -3.34, -3.18, 2.82, 2.47, 10.88, repro,
1996-08-26,-5.85, -1.75, -0.03, 2.97, 2.69, 11.00, repro,
1996-08-27,-5.12, -2.12, -0.58, 2.72, 2.42, 10.70, repro,
1996-08-28,-6.87, -3.73, 5.76, 2.80, 2.56, 11.41, repro,
1996-08-29,-5.09, -2.77, -9.01, 3.14, 2.75, 12.99, repro,
1996-08-30,-5.77, -3.12, 7.52, 2.82, 2.59, 11.23, repro,
1996-08-31,-5.95, -1.65, 0.15, 2.70, 2.37, 10.40, repro,
1996-09-01,-5.78, -2.69, -10.55, 2.98, 2.73, 12.03, repro,
1996-09-02,-5.91, -2.28, -8.23, 2.95, 2.64, 10.99, repro,
1996-09-03,-6.32, -3.79, -13.47, 2.86, 2.55, 12.10, repro,
1996-09-04,-6.51, -3.97, -0.85, 3.14, 2.83, 12.43, repro,
1996-09-05,-3.67, -5.28, -3.10, 2.78, 2.42, 10.60, repro,
1996-09-06,-4.50, -1.27, -8.99, 3.00, 2.72, 11.80, repro,
1996-09-07,-7.01, -3.16, 8.16, 3.10, 2.85, 12.21, repro,
1996-09-08,-1.80, -5.03, -2.00, 2.95, 2.60, 11.66, repro,
1996-09-09,-5.84, -2.02, -8.54, 3.09, 2.88, 12.41, repro,
1996-09-10,-4.09, -2.96, -8.84, 3.80, 3.65, 17.05, repro,
1996-09-11,-10.73, 10.00, -86.42, 32.20, 49.30, 122.47, repro,
1996-09-12,-0.32, -7.75, 33.27, 8.64, 10.71, 39.28, repro,
1996-09-13,-5.73, -6.06, -6.99, 8.30, 9.68, 31.86, repro,
1996-09-14,-10.78, -5.94, -2.05, 6.75, 5.35, 25.09, repro,
1996-09-15,-9.31, -7.57, 10.61, 21.29, 10.30, 56.14, repro,
1996-09-16,-6.31, -4.46, -14.19, 16.47, 30.11, 69.55, repro,
1996-09-17,-3.97, 0.16, 7.35, 4.07, 3.73, 16.29, repro,
1996-09-18,-6.67, -2.33, 0.06, 2.53, 2.35, 9.72, repro,
1996-09-19,-6.50, -2.81, -1.65, 2.50, 2.26, 9.82, repro,
1996-09-20,-3.73, -1.98, -2.29, 2.65, 2.38, 10.19, repro,
1996-09-21,-5.83, -2.62, -3.61, 2.58, 2.34, 10.49, repro,
1996-09-22,-5.55, -3.76, -2.48, 2.67, 2.49, 10.38, repro,
1996-09-23,-4.22, -1.73, 1.18, 2.68, 2.67, 10.96, repro,
1996-09-24,-5.62, -2.16, 3.30, 2.68, 2.26, 10.04, repro,
1996-09-25,-7.23, -1.89, -5.62, 2.36, 2.16, 9.38, repro,
1996-09-26,-7.15, -3.76, -11.72, 2.71, 2.53, 11.11, repro,
1996-09-27,-6.32, -2.85, -1.74, 2.71, 2.58, 11.33, repro,
1996-09-28,-5.21, -13.06, -36.02, 6.88, 5.73, 28.25, repro,
1996-09-29,-5.00, -1.43, -3.66, 2.56, 2.33, 9.97, repro,
1996-09-30,-5.34, -2.19, 0.90, 2.54, 2.29, 9.61, repro,
1996-10-01,-4.63, -3.00, 6.47, 2.57, 2.27, 9.84, repro,
1996-10-02,-3.73, -1.67, -2.79, 2.45, 2.22, 9.22, repro,
1996-10-03,-4.47, -0.64, 3.90, 2.47, 2.29, 9.43, repro,
1996-10-04,-5.44, -2.39, 3.98, 2.66, 2.49, 9.92, repro,
1996-10-05,-4.84, -2.55, 2.24, 2.56, 2.31, 10.03, repro,
1996-10-06,-5.66, -1.60, -5.03, 2.53, 2.26, 9.38, repro,
1996-10-07,-4.09, -0.60, -1.66, 2.47, 2.22, 9.22, repro,
1996-10-08,-6.07, -1.41, -1.42, 2.56, 2.27, 9.77, repro,
1996-10-09,-5.33, -2.12, 2.98, 2.57, 2.36, 9.87, repro,
1996-10-10,-5.61, -1.48, 0.38, 2.42, 2.17, 9.20, repro,
1996-10-11,-5.43, -1.03, 2.05, 2.40, 2.19, 9.20, repro,
1996-10-12,-6.17, -1.60, -0.12, 2.52, 2.34, 9.69, repro,
1996-10-13,-6.07, -2.79, 6.87, 2.46, 2.25, 9.41, repro,
1996-10-14,-5.58, -2.26, 10.57, 2.52, 2.33, 9.82, repro,
1996-10-15,-5.04, -2.75, 4.99, 2.56, 2.40, 9.94, repro,
1996-10-16,-6.90, -2.45, 1.57, 2.90, 2.67, 11.38, repro,
1996-10-17,-4.09, -3.30, -1.87, 2.62, 2.46, 10.23, repro,
1996-10-18,-7.93, -4.62, -0.14, 2.46, 2.45, 9.98, repro,
1996-10-19,-6.20, -3.23, 3.35, 2.37, 2.17, 9.34, repro,
1996-10-20,-8.39, -2.83, -1.87, 2.32, 2.21, 9.12, repro,
1996-10-21,-6.20, -2.52, 3.05, 2.46, 2.29, 9.57, repro,
1996-10-22,-5.63, -1.90, -0.95, 2.46, 2.25, 9.39, repro,
1996-10-23,-5.53, -2.58, 4.73, 2.58, 2.40, 10.06, repro,
1996-10-24,-8.51, -2.52, 3.71, 2.39, 2.25, 9.54, repro,
1996-10-25,-4.70, -2.26, 11.65, 2.45, 2.25, 9.55, repro,
1996-10-26,-3.27, 0.65, -4.14, 2.45, 2.14, 9.16, repro,
1996-10-27,-2.70, 1.66, -8.20, 2.44, 2.21, 9.42, repro,
1996-10-28,-3.47, -2.87, -5.41, 2.48, 2.23, 9.38, repro,
1996-10-29,-6.70, -3.67, -7.91, 2.34, 2.10, 9.05, repro,
1996-10-30,-7.58, -5.17, -3.47, 2.40, 2.10, 9.40, repro,
1996-10-31,-5.68, -3.39, 5.40, 2.53, 2.19, 9.67, repro,
1996-11-01,-5.24, -0.94, 2.63, 2.51, 2.28, 9.85, repro,
1996-11-02,-3.99, -2.69, -0.22, 2.68, 2.33, 10.32, repro,
1996-11-03,-4.54, -1.66, -0.26, 2.70, 2.33, 10.39, repro,
1996-11-04,-4.37, -2.67, -2.39, 2.84, 2.36, 10.61, repro,
1996-11-05,-3.92, -2.64, 3.14, 2.80, 2.52, 10.42, repro,
1996-11-06,-4.57, -2.10, -2.21, 2.78, 2.34, 10.54, repro,
1996-11-07,-3.29, -1.84, -2.95, 2.98, 2.51, 11.13, repro,
1996-11-08,-5.51, -4.80, -8.50, 2.48, 2.25, 9.81, repro,
1996-11-09,-1.15, -0.25, -5.77, 3.06, 2.60, 11.20, repro,
1996-11-10,-5.76, -1.12, 7.68, 2.64, 2.32, 10.03, repro,
1996-11-11,-6.19, -2.45, -4.12, 3.03, 2.48, 11.85, repro,
1996-11-12,-3.17, -2.17, -11.58, 2.72, 2.40, 10.21, repro,
1996-11-13,-4.51, -1.17, -1.34, 2.62, 2.29, 9.89, repro,
1996-11-14,-4.31, -1.97, -6.42, 2.51, 2.25, 9.55, repro,
1996-11-15,-5.52, -1.97, 2.24, 2.68, 2.33, 10.15, repro,
1996-11-16,-5.74, -2.44, 4.93, 2.70, 2.43, 10.32, repro,
1996-11-17,-5.40, -2.94, 7.18, 2.87, 2.37, 11.04, repro,
1996-11-18,-4.08, 0.22, 1.63, 2.89, 2.47, 11.13, repro,
1996-11-19,-5.53, -3.28, -9.38, 3.00, 2.64, 11.79, repro,
1996-11-20,-5.37, -1.90, 6.96, 2.61, 2.31, 9.97, repro,
1996-11-21,-0.37, -1.40, -1.74, 2.47, 2.23, 9.34, repro,
1996-11-22,-6.47, -0.78, -8.67, 2.93, 2.48, 11.07, repro,
1996-11-23,-6.62, -0.13, 3.99, 2.81, 2.42, 10.27, repro,
1996-11-24,-2.06, 0.35, -0.32, 2.69, 2.35, 9.84, repro,
1996-11-25,-4.38, -2.89, -3.59, 2.71, 2.33, 10.25, repro,
1996-11-26,-1.97, -2.99, -9.80, 2.60, 2.37, 9.86, repro,
1996-11-27,4.19, -1.33, -24.94, 2.73, 2.26, 10.25, repro,
1996-11-28,-4.84, -4.62, -0.64, 2.78, 2.59, 10.97, repro,
1996-11-29,-2.64, -2.52, -8.84, 3.01, 2.61, 11.18, repro,
1996-11-30,-0.57, 0.20, 1.02, 3.28, 2.71, 12.55, repro,
1996-12-01,-2.24, -2.13, -2.40, 2.99, 2.75, 11.62, repro,
1996-12-02,-2.96, -2.46, -4.52, 3.09, 2.63, 11.85, repro,
1996-12-03,-3.59, -2.66, -7.43, 2.71, 2.47, 10.52, repro,
1996-12-04,-1.95, -2.48, -4.67, 3.18, 2.69, 12.14, repro,
1996-12-05,-0.59, -2.48, 7.39, 3.29, 2.66, 11.97, repro,
1996-12-06,-2.41, -3.77, 8.33, 2.89, 2.37, 10.89, repro,
1996-12-07,0.14, -0.70, -5.60, 2.88, 2.38, 10.75, repro,
1996-12-08,-0.44, -1.27, 3.96, 2.90, 2.39, 10.69, repro,
1996-12-09,3.26, -1.14, -8.59, 3.08, 2.43, 11.40, repro,
1996-12-10,-4.24, -4.20, -10.21, 2.88, 2.33, 10.73, repro,
1996-12-11,-2.44, -3.93, 5.53, 2.48, 2.24, 9.26, repro,
1996-12-12,-3.43, -2.37, -2.81, 2.72, 2.30, 9.99, repro,
1996-12-13,-3.79, -2.83, 4.97, 2.67, 2.26, 9.81, repro,
1996-12-14,-3.29, -1.83, 5.66, 2.58, 2.21, 9.75, repro,
1996-12-15,-3.85, -2.84, -5.22, 2.62, 2.28, 9.75, repro,
1996-12-16,-2.27, -2.31, -0.97, 2.43, 2.11, 9.11, repro,
1996-12-17,-3.43, -3.27, -5.09, 2.94, 2.39, 11.12, repro,
1996-12-18,-2.01, -3.41, -3.81, 2.68, 2.33, 10.09, repro,
1996-12-19,-2.26, -3.32, -1.60, 2.69, 2.33, 10.39, repro,
1996-12-20,-3.28, -1.95, -4.88, 2.59, 2.22, 9.80, repro,
1996-12-21,-2.93, -4.87, -2.66, 2.60, 2.25, 9.68, repro,
1996-12-22,-3.62, -4.50, 3.66, 2.48, 2.18, 9.22, repro,
1996-12-23,-3.00, -3.14, -3.42, 2.63, 2.26, 9.90, repro,
1996-12-24,-2.64, -2.48, 1.88, 2.72, 2.23, 10.32, repro,
1996-12-25,-1.43, -1.17, -0.43, 2.65, 2.30, 10.28, repro,
1996-12-26,-2.46, -3.06, 2.98, 2.66, 2.33, 10.15, repro,
1996-12-27,-0.79, -2.86, -4.56, 2.76, 2.39, 10.64, repro,
1996-12-28,-3.32, -3.72, 2.14, 2.67, 2.26, 10.31, repro,
1996-12-29,-2.73, -3.66, 9.98, 2.80, 2.50, 10.71, repro,
1996-12-30,-2.37, -3.01, 4.19, 2.94, 2.60, 11.02, repro,
1996-12-31,-1.19, -2.70, 2.96, 2.68, 2.36, 10.28, repro,
1997-01-01,-2.65, -2.72, -1.33, 2.56, 2.35, 9.77, repro,
1997-01-02,-2.81, -3.54, 2.21, 2.71, 2.53, 10.44, repro,
1997-01-03,-1.61, -0.23, -0.49, 2.74, 2.52, 10.64, repro,
1997-01-04,-2.27, -1.87, -7.56, 2.56, 2.30, 9.75, repro,
1997-01-05,-4.57, -3.32, -0.57, 2.84, 2.58, 11.16, repro,
1997-01-06,2.08, 3.10, -24.68, 2.91, 2.49, 10.96, repro,
1997-01-07,-1.67, -1.47, -15.65, 2.52, 2.22, 9.74, repro,
1997-01-08,-3.60, -4.43, -11.07, 2.51, 2.27, 10.03, repro,
1997-01-09,-5.20, -4.38, -5.24, 3.01, 2.71, 12.29, repro,
1997-01-10,-5.38, -4.05, -12.68, 2.39, 2.18, 9.42, repro,
1997-01-11,-6.30, -4.37, -6.02, 2.62, 2.20, 10.23, repro,
1997-01-12,-4.92, -4.31, -9.15, 2.50, 2.22, 9.61, repro,
1997-01-13,-6.03, -4.53, -9.29, 2.51, 2.30, 10.12, repro,
1997-01-14,-4.53, -3.68, -10.10, 2.74, 2.47, 10.96, repro,
1997-01-15,-4.42, -2.76, -11.91, 2.68, 2.43, 10.77, repro,
1997-01-16,-4.01, -4.25, -14.88, 2.53, 2.41, 10.19, repro,
1997-01-17,-5.50, -2.90, -15.63, 2.75, 2.42, 10.70, repro,
1997-01-18,-5.05, -3.72, -13.32, 2.56, 2.34, 9.97, repro,
1997-01-19,-4.23, -4.87, -4.95, 2.68, 2.47, 10.49, repro,
1997-01-20,-5.12, -7.06, -15.19, 2.48, 2.37, 10.18, repro,
1997-01-21,-3.51, -5.18, -8.11, 2.43, 2.18, 9.55, repro,
1997-01-22,-1.72, -5.17, -6.39, 2.94, 2.50, 11.18, repro,
1997-01-23,-1.47, -4.74, 0.95, 2.55, 2.28, 10.01, repro,
1997-01-24,-1.97, -5.27, -7.41, 2.65, 2.46, 9.99, repro,
1997-01-25,-2.70, -6.28, -11.33, 2.62, 2.28, 10.31, repro,
1997-01-26,-4.86, -5.17, -9.40, 2.45, 2.26, 9.64, repro,
1997-01-27,-1.64, -4.40, -13.25, 2.89, 2.45, 11.02, repro,
1997-01-28,-5.02, -5.13, -18.42, 2.62, 2.35, 10.48, repro,
1997-01-29,-6.38, -8.28, -22.65, 2.45, 2.20, 9.64, repro,
1997-01-30,-2.01, -3.89, -7.42, 2.43, 2.22, 9.33, repro,
1997-01-31,-1.48, -4.83, -5.37, 2.45, 2.22, 9.62, repro,
1997-02-01,-3.47, -3.50, -6.49, 2.38, 2.13, 9.50, repro,
1997-02-24,-4.38, -9.34, -0.19, 2.74, 2.48, 10.46, repro,
1997-02-25,-3.17, -2.93, -28.64, 2.53, 2.28, 10.05, repro,
1997-02-26,-5.06, -7.97, -10.36, 2.62, 2.34, 10.65, repro,
1997-02-27,-0.37, -6.66, -0.97, 2.91, 2.62, 11.71, repro,
1997-02-28,-4.17, -4.56, -8.53, 2.75, 2.34, 11.08, repro,
1997-03-01,-4.64, -6.81, -17.01, 2.81, 2.62, 11.38, repro,
1997-03-02,-4.58, -5.55, -9.45, 2.55, 2.28, 10.58, repro,
1997-03-03,-5.43, -4.84, 0.29, 2.43, 2.19, 9.81, repro,
1997-03-04,-6.18, -8.41, -23.36, 2.68, 2.51, 11.06, repro,
1997-03-05,-2.02, -6.73, -10.42, 2.95, 2.70, 12.07, repro,
1997-03-08,-1.75, -2.94, -8.85, 2.61, 2.32, 10.20, repro,
1997-03-09,-3.53, -3.80, -1.55, 3.05, 2.60, 12.01, repro,
1997-03-10,-2.68, -6.01, -13.23, 2.84, 2.75, 11.43, repro,
1997-03-11,-4.75, -6.00, -5.22, 2.84, 2.77, 12.23, repro,
1997-03-12,-6.74, -8.10, -10.07, 2.77, 2.53, 11.91, repro,
1997-03-13,-4.49, -7.31, -13.06, 2.69, 2.62, 11.41, repro,
1997-03-14,-4.56, -5.76, -11.57, 2.52, 2.38, 10.34, repro,
1997-03-15,-5.78, -7.06, 1.78, 2.58, 2.46, 10.63, repro,
1997-03-16,-3.99, -5.63, 2.29, 2.46, 2.15, 9.17, repro,